Location: Codford Saint Peter
(51.1597°N, 2.0531°W)
Time: 18:30:41
(UTC+00:00)

Envisat - Pass Details

Date: 30 January 2022
Orbit: 764 x 765 km, 98.2° (Epoch: 19 May)

Event Time Altitude Azimuth Distance (km) Brightness Sun altitude
Rises 06:45:46 0° 5° (N) 3,244 6.1 -10.0°
Reaches altitude 10° 06:48:37 10° 349° (N) 2,314 5.2 -9.5°
Maximum altitude 06:52:15 20° 303° (WNW) 1,711 4.2 -9.0°
Drops below altitude 10° 06:55:53 10° 258° (WSW) 2,305 5.0 -8.4°
Sets 06:58:42 0° 242° (WSW) 3,227 5.8 -8.0°
